CAPE
38 74 65 28 20 0 0 0 0 0 0 0 0 0 0 0 0 0 0 0 0 0 0 0 0 0 0 0 0 0 0 0 0 0 0 0 0 0 0 0 0 0 0 0
78 81 47 0 2 0 0 0 0 0 0 0 0 0 0 0 0 0 0 0 0 0 0 0 0 0 0 0 0 0 0 0 0 0 0 0 0 0 0 0 0 0 0 0
23 16 17 11 13 24 0 0 0 0 0 0 0 0 0 0 0 0 0 0 0 0 0 0 0 0 0 0 0 0 0 0 0 0 0 0 0 0 0 0 0 0 0 0
69 6 19 16 1 0 1 0 0 0 0 0 0 0 0 0 0 0 0 0 0 0 0 0 0 0 0 0 0 0 0 0 0 0 0 0 0 0 0 0 0 0 0 0
31 28 14 15 0 0 0 0 0 0 0 0 0 0 0 0 0 0 0 0 0 0 0 0 0 0 0 0 0 0 0 0 0 0 0 0 0 0 0 0 0 0 0 0
13 5 91 10 0 0 0 0 0 0 0 0 0 0 0 0 0 0 0 0 0 0 0 0 0 0 0 0 0 0 0 0 0 0 0 0 0 0 0 0 0 0 0 0
10 27 2 28 0 0 0 2 2 1 0 0 0 0 0 0 0 0 0 0 0 0 0 0 0 0 0 0 0 0 0 0 0 0 0 0 0 0 0 0 0 0 0 0
10 8 0 0 0 0 0 0 0 0 0 0 0 0 0 0 0 0 0 0 0 0 0 0 0 0 0 0 0 0 0 0 0 0 0 0 0 0 0 0 0 0 0 0
3 1 0 0 0 0 0 0 0 0 0 0 0 0 0 0 0 0 0 0 0 0 0 0 0 0 0 0 0 0 0 0 0 0 0 0 0 0 0 0 0 0 0 0
0 0 0 0 0 0 0 0 0 0 0 0 0 0 0 0 0 0 0 0 0 0 0 0 0 0 0 0 0 0 0 0 0 0 0 0 0 0 0 0 0 0 0 0
0 0 0 0 0 0 0 0 0 0 0 0 0 0 0 0 0 0 0 0 0 0 0 0 0 0 0 0 0 0 0 0 0 0 0 0 0 0 0 0 0 0 0 0
0 0 0 0 0 0 0 0 0 0 0 0 0 0 0 0 0 0 0 0 0 0 0 0 0 0 0 0 0 0 0 0 0 0 0 0 0 0 0 0 0 0 0 0
0 0 0 0 0 0 0 0 0 0 0 0 0 0 0 0 0 0 0 0 0 0 0 0 0 0 0 0 0 0 0 0 0 0 0 0 0 0 0 0 0 0 0 0
0 0 0 0 0 0 0 0 0 0 0 0 0 0 0 0 0 0 0 0 0 0 0 0 0 0 0 0 0 0 0 0 0 0 0 0 0 0 0 0 0 0 0 0
0 0 0 0 0 0 0 0 0 0 0 0 0 0 0 0 0 0 0 0 0 0 0 0 0 0 0 0 0 0 0 0 0 0 0 0 0 0 0 0 0 0 0 0
0 0 0 0 0 0 0 0 0 0 0 0 0 0 0 0 0 0 0 0 0 0 0 0 0 0 0 0 0 0 0 0 0 0 0 0 0 0 0 0 0 0 0 0
0 0 0 0 0 0 0 0 0 0 0 0 0 0 0 0 0 0 0 0 0 0 0 0 0 0 0 0 0 0 0 0 0 0 0 0 0 0 0 0 0 0 0 0
0 0 0 0 0 0 0 0 0 0 0 0 0 0 0 0 0 0 0 0 0 0 0 0 0 0 0 0 0 0 0 0 0 0 0 0 0 0 0 0 0 0 0 0
0 0 0 0 0 0 0 0 0 0 0 0 0 0 0 0 0 0 0 0 0 0 0 0 0 0 0 0 0 0 0 0 0 0 0 0 0 0 0 0 0 0 0 0
0 0 0 0 0 0 0 0 0 0 0 0 0 0 0 0 0 0 0 0 0 0 0 0 0 0 0 0 0 0 0 0 0 0 0 0 0 0 0 0 0 0 0 0
0 0 0 0 0 0 0 0 0 0 0 0 0 0 0 0 0 0 0 0 0 0 0 0 0 0 0 0 0 0 0 0 0 0 0 0 0 0 0 0 0 0 0 0
0 0 0 0 0 0 0 0 0 0 0 0 0 0 0 0 0 0 0 0 0 0 0 0 0 0 0 0 0 0 0 0 0 0 0 0 0 0 0 0 0 0 0 0
0 0 0 0 0 0 0 0 0 0 0 0 0 0 0 0 0 0 0 0 0 0 0 0 0 0 0 0 0 0 0 0 0 0 0 0 0 0 0 0 0 0 0 0
0 0 0 0 0 0 0 0 0 0 0 0 0 0 0 0 0 0 0 0 0 0 0 0 0 0 0 0 0 0 0 0 0 0 0 0 0 0 0 0 0 0 0 0
0 0 0 0 0 0 0 0 0 0 0 0 0 0 0 0 0 0 0 0 0 0 0 0 0 0 0 0 0 0 0 0 0 0 0 0 0 0 0 0 0 0 0 0
0 0 0 0 0 0 0 0 0 0 0 0 0 0 0 0 0 0 0 0 0 0 0 0 0 0 0 0 0 0 0 0 0 0 0 0 0 0 0 0 0 0 0 2
CIN
-3 -12 -0 -4 -16 -0 -0 -0 -0 -0 -0 -0 -0 -0 -0 -0 -0 -0 -0 -0 -0 -0 -0 -0 -0 -0 -0 -0 -0 -0 -0 -0 -0 -0 -0 -0 -0 -0 -0 -0 -0 -0 -0 -0
-1 -1 -5 -9 -12 -4 -0 -0 -0 -0 -0 -0 -0 -0 -0 -0 -0 -0 -0 -0 -0 -0 -0 -0 -0 -0 -0 -0 -0 -0 -0 -0 -0 -0 -0 -0 -0 -0 -0 -0 -0 -0 -0 -0
-0 -5 -5 -10 -31 -9 -0 -0 -0 -0 -0 -0 -0 -0 -0 -0 -0 -0 -0 -0 -0 -0 -0 -0 -0 -0 -0 -0 -0 -0 -0 -0 -0 -0 -0 -0 -0 -0 -0 -0 -0 -0 -0 -0
-0 -39 -26 -4 -35 -0 -10 -0 -0 -0 -0 -0 -0 -0 -0 -0 -0 -0 -0 -0 -0 -0 -0 -0 -0 -0 -0 -0 -0 -0 -0 -0 -0 -0 -0 -0 -0 -0 -0 -0 -0 -0 -0 -0
-5 -3 -3 -8 -0 -0 -0 -0 -0 -0 -0 -0 -0 -0 -0 -0 -0 -0 -0 -0 -0 -0 -0 -0 -0 -0 -0 -0 -0 -0 -0 -0 -0 -0 -0 -0 -0 -0 -0 -0 -0 -0 -0 -0
-10 -10 -4 -56 -0 -0 -0 -0 -0 -0 -0 -0 -0 -0 -0 -0 -0 -0 -0 -0 -0 -0 -0 -0 -0 -0 -0 -0 -0 -0 -0 -0 -0 -0 -0 -0 -0 -0 -0 -0 -0 -0 -0 -0
-0 -39 -37 -64 -0 -0 -0 -8 -1 -0 -0 -0 -0 -0 -0 -0 -0 -0 -0 -0 -0 -0 -0 -0 -0 -0 -0 -0 -0 -0 -0 -0 -0 -0 -0 -0 -0 -0 -0 -0 -0 -0 -0 -0
-0 -13 -0 -0 -0 -0 -0 -0 -0 -0 -0 -0 -0 -0 -0 -0 -0 -0 -0 -0 -0 -0 -0 -0 -0 -0 -0 -0 -0 -0 -0 -0 -0 -0 -0 -0 -0 -0 -0 -0 -0 -0 -0 -0
-0 -0 -0 -0 -0 -0 -0 -0 -0 -0 -0 -0 -0 -0 -0 -0 -0 -0 -0 -0 -0 -0 -0 -0 -0 -0 -0 -0 -0 -0 -0 -0 -0 -0 -0 -0 -0 -0 -0 -0 -0 -0 -0 -0
-0 -2 -0 -0 -0 -0 -0 -0 -0 -0 -0 -0 -0 -0 -0 -0 -0 -0 -0 -0 -0 -0 -0 -0 -0 -0 -0 -0 -0 -0 -0 -0 -0 -0 -0 -0 -0 -0 -0 -0 -0 -0 -0 -0
-0 -0 -0 -0 -0 -0 -0 -0 -0 -0 -0 -0 -0 -0 -0 -0 -0 -0 -0 -0 -0 -0 -0 -0 -0 -0 -0 -0 -0 -0 -0 -0 -0 -0 -0 -0 -0 -0 -0 -0 -0 -0 -0 -0
-0 -0 -0 -0 -0 -0 -0 -0 -0 -0 -0 -0 -0 -0 -0 -0 -0 -0 -0 -0 -0 -0 -0 -0 -0 -0 -0 -0 -0 -0 -0 -0 -0 -0 -0 -0 -0 -0 -0 -0 -0 -0 -0 -0
-0 -0 -0 -0 -0 -0 -0 -0 -0 -0 -0 -0 -0 -0 -0 -0 -0 -0 -0 -0 -0 -0 -0 -0 -0 -0 -0 -0 -0 -0 -0 -0 -0 -0 -0 -0 -0 -0 -0 -0 -0 -0 -0 -0
-0 -0 -0 -0 -0 -0 -0 -0 -0 -0 -0 -0 -0 -0 -0 -0 -0 -0 -0 -0 -0 -0 -0 -0 -0 -0 -0 -0 -0 -0 -0 -0 -0 -0 -0 -0 -0 -0 -0 -0 -0 -0 -0 -0
-0 -0 -0 -0 -0 -0 -0 -0 -0 -0 -0 -0 -0 -0 -0 -0 -0 -0 -0 -0 -0 -0 -0 -0 -0 -0 -0 -0 -0 -0 -0 -0 -0 -0 -0 -0 -0 -0 -0 -0 -0 -0 -0 -0
-0 -0 -0 -0 -0 -0 -0 -0 -0 -0 -0 -0 -0 -0 -0 -0 -0 -0 -0 -0 -0 -0 -0 -0 -0 -0 -0 -0 -0 -0 -0 -0 -0 -0 -0 -0 -0 -0 -0 -0 -0 -0 -0 -0
-0 -0 -0 -0 -0 -0 -0 -0 -0 -0 -0 -0 -0 -0 -0 -0 -0 -0 -0 -0 -0 -0 -0 -0 -0 -0 -0 -0 -0 -0 -0 -0 -0 -0 -0 -0 -0 -0 -0 -0 -0 -0 -0 -0
-0 -0 -0 -0 -0 -0 -0 -0 -0 -0 -0 -0 -0 -0 -0 -0 -0 -0 -0 -0 -0 -0 -0 -0 -0 -0 -0 -0 -0 -0 -0 -0 -0 -0 -0 -0 -0 -0 -0 -0 -0 -0 -0 -0
-0 -0 -0 -0 -0 -0 -0 -0 -0 -0 -0 -0 -0 -0 -0 -0 -0 -0 -0 -0 -0 -0 -0 -0 -0 -0 -0 -0 -0 -0 -0 -0 -0 -0 -0 -0 -0 -0 -0 -0 -0 -0 -0 -0
-0 -0 -0 -0 -0 -0 -0 -0 -0 -0 -0 -0 -0 -0 -0 -0 -0 -0 -0 -0 -0 -0 -0 -0 -0 -0 -0 -0 -0 -0 -0 -0 -0 -0 -0 -0 -0 -0 -0 -0 -0 -0 -0 -0
-0 -0 -0 -0 -0 -0 -0 -0 -0 -0 -0 -0 -0 -0 -0 -0 -0 -0 -0 -0 -0 -0 -0 -0 -0 -0 -0 -0 -0 -0 -0 -0 -0 -0 -0 -0 -0 -0 -0 -0 -0 -0 -0 -0
-0 -0 -0 -0 -0 -0 -0 -0 -0 -0 -0 -0 -0 -0 -0 -0 -0 -0 -0 -0 -0 -0 -0 -0 -0 -0 -0 -0 -0 -0 -0 -0 -0 -0 -0 -0 -0 -0 -0 -0 -0 -0 -0 -0
-0 -0 -0 -0 -0 -0 -0 -0 -0 -0 -0 -0 -0 -0 -0 -0 -0 -0 -0 -0 -0 -0 -0 -0 -0 -0 -0 -0 -0 -0 -0 -0 -0 -0 -0 -0 -0 -0 -0 -0 -0 -0 -0 -0
-0 -0 -0 -0 -0 -0 -0 -0 -0 -0 -0 -0 -0 -0 -0 -0 -0 -0 -0 -0 -0 -0 -0 -0 -0 -0 -0 -0 -0 -0 -0 -0 -0 -0 -0 -0 -0 -0 -0 -0 -0 -0 -0 -0
-0 -0 -0 -0 -0 -0 -0 -0 -0 -0 -0 -0 -0 -0 -0 -0 -0 -0 -0 -0 -0 -0 -0 -0 -0 -0 -0 -0 -0 -0 -0 -0 -0 -0 -0 -0 -0 -0 -0 -0 -0 -0 -0 -0
-0 -0 -0 -0 -0 -0 -0 -0 -0 -0 -0 -0 -0 -0 -0 -0 -0 -0 -0 -0 -0 -0 -0 -0 -0 -0 -0 -0 -0 -0 -0 -0 -0 -0 -0 -0 -0 -0 -0 -0 -0 -0 -0 -0
Wind_Speed
15 11 15 16 12 5 7 7 10 2 2 1 5 6 14 5 4 4 5 6 6 6 4 6 8 9 10 13 13 13 14 11 6 5 5 8 9 9 10 10 14 14 13 13
11 14 12 9 8 7 6 5 5 3 1 3 5 13 13 3 4 4 11 8 7 6 6 7 9 11 12 10 12 15 15 12 10 6 4 5 7 9 8 8 12 12 13 13
17 7 15 12 7 9 4 6 4 4 3 1 5 7 5 2 2 4 6 7 6 9 8 6 10 10 9 12 12 13 13 14 13 10 7 7 6 6 7 8 8 11 12 12
11 6 16 14 12 9 9 4 2 2 4 3 4 7 6 4 1 4 6 8 9 9 6 6 8 9 9 9 8 12 13 14 13 12 12 15 10 8 5 6 7 8 11 11
6 14 18 16 15 9 4 6 3 0 3 1 2 2 7 2 3 6 8 6 7 8 8 7 7 6 7 7 8 10 13 14 13 13 11 9 10 6 5 5 8 9 8 10
3 3 10 8 8 9 9 7 6 3 4 3 5 6 6 4 5 5 4 7 9 9 8 6 5 6 8 7 9 10 13 12 11 12 12 12 11 8 7 8 7 6 6 6
3 3 4 6 10 3 5 7 3 1 4 5 2 2 9 3 5 9 15 13 11 11 10 9 8 7 7 8 8 9 11 11 10 12 12 11 10 10 10 8 7 9 7 7
5 6 8 6 7 7 6 6 5 5 4 3 3 6 6 3 3 3 7 11 11 11 9 9 8 7 8 7 8 9 9 10 10 11 11 10 10 7 7 8 6 6 7 7
13 3 2 8 4 10 4 5 4 4 2 1 3 6 7 1 3 2 10 13 13 11 10 10 8 8 7 7 7 8 9 10 9 10 9 9 8 8 7 7 6 6 6 7
5 6 4 4 6 4 7 6 3 2 4 4 3 5 5 5 4 3 8 14 9 8 10 9 8 8 6 7 7 7 8 10 9 9 7 7 7 8 7 7 8 9 8 9
6 5 1 6 5 10 5 3 1 3 2 4 1 4 5 5 3 7 9 9 11 10 11 10 9 8 7 7 6 6 7 8 8 8 7 7 7 7 7 7 8 7 7 8
7 7 5 3 1 3 5 8 11 4 3 2 2 6 1 5 5 6 9 8 7 7 9 10 11 9 8 7 6 6 7 7 7 6 6 6 6 7 7 7 7 7 8 7
7 2 7 5 2 4 5 4 4 4 3 6 6 5 1 3 4 3 9 6 6 7 10 10 10 9 8 7 6 6 6 6 5 5 4 5 6 7 7 7 7 7 8 9
4 3 6 8 5 7 5 4 4 6 4 5 7 5 3 1 5 6 5 6 7 7 10 10 9 8 7 6 6 6 5 4 4 4 4 4 5 5 5 6 8 8 8 9
2 3 3 1 2 6 8 10 12 10 11 11 7 10 7 4 7 6 4 4 6 7 10 11 10 9 8 7 6 5 4 4 3 4 4 5 5 5 6 7 7 8 8 9
3 3 3 2 2 4 5 6 11 9 3 8 5 8 5 3 5 5 4 5 5 6 9 10 10 10 9 7 6 5 4 3 3 3 4 4 5 6 6 7 8 8 9 10
4 6 3 2 2 4 3 10 10 7 6 10 12 9 7 4 7 6 5 5 5 5 8 11 11 9 8 7 6 5 4 3 3 2 2 4 5 6 7 8 9 9 10 10
6 6 2 4 2 1 5 1 5 6 3 5 3 6 7 7 5 5 3 3 3 2 6 8 8 8 7 5 5 5 3 3 1 1 4 4 6 7 8 9 9 10 9 10
5 7 2 5 4 4 1 4 7 8 6 6 9 7 7 5 4 3 3 3 2 1 3 6 8 7 6 6 5 4 3 1 1 4 4 5 6 8 9 10 10 10 10 11
4 4 4 1 5 7 1 2 4 4 5 8 7 7 7 5 3 3 2 2 5 5 5 8 8 7 7 5 4 4 2 1 3 4 5 6 6 8 9 10 10 9 10 12
3 4 6 4 2 6 4 3 4 5 4 5 6 6 6 4 2 3 3 4 4 4 7 7 7 7 6 5 4 3 1 2 3 4 5 6 7 8 8 9 9 9 12 12
7 7 5 3 2 7 5 4 7 4 4 6 5 4 5 5 5 4 3 4 5 7 6 6 6 6 5 4 3 2 1 2 3 4 6 7 8 7 8 10 10 11 11 12
3 5 6 7 5 1 2 1 3 4 7 5 6 5 6 6 5 6 4 5 6 7 5 5 6 6 4 4 3 1 1 3 4 5 7 8 9 8 8 9 12 10 10 10
2 2 4 4 1 2 4 4 4 4 5 6 5 5 5 4 5 5 5 6 7 7 6 5 6 6 5 4 2 1 2 3 4 6 7 7 8 11 9 7 8 9 9 9
3 5 6 3 2 5 3 3 6 6 7 8 5 4 4 4 3 3 4 5 6 6 6 6 5 4 4 3 1 2 3 3 5 6 7 7 7 8 9 8 8 9 9 11
5 7 5 6 8 5 6 7 6 8 6 5 5 4 3 2 3 3 4 4 5 6 5 5 4 4 3 3 3 2 2 3 4 6 6 7 8 7 8 8 9 12 16 20
Wind_Direction
201 196 199 188 180 166 156 168 214 236 252 230 248 265 287 282 233 239 160 146 119 86 355 28 48 44 53 45 48 44 52 44 63 66 75 64 73 69 64 61 56 52 49 46
192 204 183 161 161 132 141 151 206 274 209 202 298 289 271 287 251 184 168 162 144 121 70 41 51 51 49 56 56 56 55 50 49 59 73 85 84 73 71 59 52 46 45 39
201 186 167 166 167 169 168 160 163 209 313 213 296 290 326 330 104 94 148 144 140 128 119 86 63 54 51 52 50 60 60 58 55 59 76 79 75 64 51 39 44 38 40 37
236 224 164 166 180 169 206 189 102 93 36 267 13 290 293 305 151 134 170 164 143 134 125 95 86 73 69 56 59 65 62 61 55 58 70 71 71 71 44 42 39 38 34 32
215 181 175 175 182 162 189 161 161 209 200 32 323 259 275 342 218 187 191 194 156 143 130 114 105 103 85 72 67 69 71 66 65 66 69 77 77 75 61 45 38 33 29 29
236 177 154 181 156 156 152 79 54 38 47 275 212 195 273 219 206 156 166 196 168 153 137 129 117 118 98 78 78 79 81 72 69 75 74 75 74 63 50 34 29 20 16 18
193 146 96 111 129 59 129 117 49 55 211 227 125 162 252 250 216 183 182 184 178 165 149 149 146 137 113 98 94 89 86 82 77 73 68 66 66 59 51 35 24 16 11 10
199 162 152 152 188 150 160 145 166 189 190 236 138 229 251 185 266 232 165 168 168 165 155 159 155 143 126 115 103 98 97 93 81 77 69 62 59 58 51 40 30 22 11 2
184 185 148 168 146 141 201 167 135 111 55 80 250 283 295 189 19 122 161 164 177 167 159 159 156 146 134 119 104 109 107 96 86 82 77 67 62 60 52 41 33 21 11 358
171 104 174 120 105 40 153 145 146 300 185 222 287 282 250 331 14 127 172 175 169 148 157 154 153 145 127 113 106 98 93 93 90 81 74 69 58 49 41 34 24 15 4 356
154 107 100 121 203 165 144 126 173 168 133 162 232 263 214 259 280 194 188 176 167 167 165 158 150 141 128 116 107 101 90 89 83 76 67 57 47 41 36 28 14 3 351 341
212 127 128 173 41 173 148 158 198 145 201 93 124 271 257 276 276 170 164 168 173 161 158 156 152 146 134 120 111 101 90 87 84 77 69 57 46 35 31 14 1 350 342 338
187 129 113 110 38 11 186 149 181 119 82 178 152 251 11 48 79 141 156 165 170 159 156 156 151 152 143 133 124 105 95 97 92 87 72 50 37 28 13 355 347 346 342 341
124 127 152 183 165 136 173 157 175 157 168 171 215 234 248 146 139 145 148 177 182 173 160 160 159 155 149 146 132 120 112 115 119 95 67 49 33 10 345 342 345 340 341 339
140 138 121 1 175 146 168 177 182 194 200 203 207 211 228 182 178 169 151 143 144 161 166 170 165 162 160 150 138 135 125 130 118 69 37 22 0 340 347 343 334 335 340 334
358 185 133 99 150 158 183 198 194 211 176 250 165 238 181 124 114 135 151 150 157 171 175 173 167 165 164 161 159 145 143 110 78 56 25 346 341 341 339 333 334 337 332 332
148 121 135 194 174 134 288 206 187 202 197 203 211 220 166 146 146 143 126 119 130 169 178 178 170 163 164 169 156 150 137 102 82 34 340 347 336 330 334 333 335 333 330 329
131 88 321 145 153 195 241 41 189 156 189 182 110 152 162 148 133 119 78 84 61 144 172 164 150 154 157 149 143 140 126 90 64 308 358 336 326 331 331 331 327 325 324 323
88 170 145 147 191 284 271 199 157 171 228 188 151 139 128 123 99 73 64 62 36 352 158 150 147 138 142 148 148 138 103 88 354 5 329 327 335 326 328 327 323 318 320 327
86 77 112 59 158 202 239 184 174 139 275 178 146 139 136 132 129 228 41 71 64 76 108 127 127 131 133 139 134 130 126 33 351 331 316 322 323 321 317 312 312 315 321 316
94 30 144 194 210 287 231 162 156 115 251 114 125 131 132 124 165 135 115 73 84 91 117 122 131 141 148 150 155 130 143 335 317 312 319 318 314 313 299 309 320 321 316 310
156 151 176 105 118 263 152 118 166 163 51 114 112 125 129 120 114 96 99 125 133 139 139 140 137 147 158 149 128 140 305 320 331 323 303 305 313 314 320 324 321 316 310 310
196 179 178 170 210 236 23 16 88 116 121 137 128 144 136 134 148 160 187 177 175 172 161 158 155 151 148 133 127 148 337 338 305 297 313 317 311 318 323 321 320 317 316 309
258 179 107 126 323 58 95 80 85 104 108 118 104 127 132 143 156 164 162 176 179 176 172 161 158 165 164 148 134 61 293 282 303 317 309 307 322 328 328 313 310 310 304 305
196 141 138 84 36 66 356 104 123 96 95 97 75 92 134 153 195 193 190 187 179 168 168 164 162 164 151 136 225 256 279 320 315 300 308 319 322 314 312 307 303 302 302 302
189 168 159 210 183 144 171 155 134 119 117 121 129 124 94 133 195 183 194 182 166 164 146 141 153 153 167 193 244 282 293 284 296 313 324 323 317 309 308 303 304 305 306 310